| time (UTC) | temp F | wind direction | speed MPH | gust MPH | rain 1hr in | rain 24hr in | rain mn in | humidity % | barometer mb |
| 20260508122549 | 44 | 360 | 0.0 | 2.0 | 0.00 | 0.00 | 0.00 | 94 | 1012.0 |
| 20260508122050 | 44 | 360 | 0.0 | 3.0 | 0.00 | 0.00 | 0.00 | 94 | 1012.2 |
| 20260508121553 | 44 | 360 | 0.0 | 3.0 | 0.00 | 0.00 | 0.00 | 94 | 1012.4 |
| 20260508121047 | 44 | 360 | 1.0 | 3.0 | 0.00 | 0.00 | 0.00 | 95 | 1012.3 |
| 20260508120546 | 44 | 360 | 0.0 | 3.0 | 0.00 | 0.00 | 0.00 | 94 | 1012.2 |
| 20260508120046 | 43 | 360 | 1.0 | 3.0 | 0.00 | 0.00 | 0.00 | 95 | 1011.9 |
| 20260508115546 | 43 | 360 | 1.0 | 3.0 | 0.00 | 0.00 | 0.00 | 94 | 1011.6 |
| 20260508115046 | 43 | 360 | 1.0 | 3.0 | 0.00 | 0.00 | 0.00 | 95 | 1011.8 |
| 20260508114543 | 43 | 360 | 1.0 | 3.0 | 0.00 | 0.00 | 0.00 | 94 | 1011.7 |
| 20260508114043 | 43 | 360 | 1.0 | 3.0 | 0.00 | 0.00 | 0.00 | 94 | 1011.4 |
| 20260508113542 | 42 | 360 | 0.0 | 1.0 | 0.00 | 0.00 | 0.00 | 94 | 1011.3 |
| 20260508113046 | 42 | 360 | 0.0 | 0.0 | 0.00 | 0.00 | 0.00 | 94 | 1011.2 |
| 20260508112540 | 43 | 360 | 0.0 | 0.0 | 0.00 | 0.00 | 0.00 | 93 | 1011.0 |
| 20260508112039 | 43 | 360 | 0.0 | 0.0 | 0.00 | 0.00 | 0.00 | 93 | 1010.9 |
| 20260508111539 | 43 | 360 | 0.0 | 0.0 | 0.00 | 0.00 | 0.00 | 93 | 1011.0 |
| 20260508111040 | 43 | 360 | 0.0 | 0.0 | 0.00 | 0.00 | 0.00 | 93 | 1011.1 |
| 20260508110539 | 43 | 360 | 0.0 | 0.0 | 0.00 | 0.00 | 0.00 | 93 | 1010.9 |
| 20260508110044 | 43 | 360 | 0.0 | 1.0 | 0.00 | 0.00 | 0.00 | 93 | 1010.9 |
| 20260508105541 | 43 | 360 | 0.0 | 1.0 | 0.00 | 0.00 | 0.00 | 93 | 1010.9 |
| 20260508105038 | 43 | 360 | 0.0 | 0.0 | 0.00 | 0.00 | 0.00 | 93 | 1010.6 |
| 20260508104537 | 44 | 360 | 0.0 | 1.0 | 0.00 | 0.00 | 0.00 | 93 | 1010.7 |
| 20260508104037 | 44 | 360 | 0.0 | 1.0 | 0.00 | 0.00 | 0.00 | 93 | 1010.7 |
| 20260508103537 | 44 | 360 | 0.0 | 0.0 | 0.00 | 0.00 | 0.00 | 93 | 1010.6 |
| 20260508103036 | 44 | 360 | 0.0 | 1.0 | 0.00 | 0.00 | 0.00 | 93 | 1010.5 |
| 20260508102536 | 44 | 360 | 0.0 | 1.0 | 0.00 | 0.00 | 0.00 | 93 | 1010.6 |
| 20260508102037 | 44 | 360 | 0.0 | 0.0 | 0.00 | 0.00 | 0.00 | 92 | 1010.5 |
| 20260508101535 | 44 | 360 | 0.0 | 0.0 | 0.00 | 0.00 | 0.00 | 93 | 1010.7 |
| 20260508101038 | 44 | 360 | 0.0 | 1.0 | 0.00 | 0.00 | 0.00 | 92 | 1010.8 |
| 20260508100536 | 44 | 360 | 0.0 | 2.0 | 0.00 | 0.00 | 0.00 | 92 | 1010.9 |
| 20260508100034 | 44 | 360 | 0.0 | 2.0 | 0.00 | 0.00 | 0.00 | 92 | 1011.0 |
| 20260508095537 | 44 | 360 | 0.0 | 1.0 | 0.00 | 0.00 | 0.00 | 92 | 1010.7 |
| 20260508095034 | 44 | 360 | 0.0 | 1.0 | 0.00 | 0.00 | 0.00 | 92 | 1010.7 |
| 20260508094532 | 43 | 360 | 0.0 | 3.0 | 0.00 | 0.00 | 0.00 | 92 | 1010.7 |
| 20260508094037 | 43 | 360 | 0.0 | 3.0 | 0.00 | 0.00 | 0.00 | 91 | 1010.4 |
| 20260508093531 | 43 | 360 | 0.0 | 1.0 | 0.00 | 0.00 | 0.00 | 91 | 1010.0 |
| 20260508093031 | 43 | 360 | 0.0 | 2.0 | 0.00 | 0.00 | 0.00 | 91 | 1009.8 |
| 20260508092530 | 43 | 360 | 0.0 | 2.0 | 0.00 | 0.00 | 0.00 | 90 | 1009.8 |
| 20260508092029 | 44 | 360 | 0.0 | 1.0 | 0.00 | 0.00 | 0.00 | 91 | 1009.8 |
| 20260508091529 | 44 | 360 | 0.0 | 1.0 | 0.00 | 0.00 | 0.00 | 89 | 1009.8 |
| 20260508091028 | 45 | 360 | 0.0 | 2.0 | 0.00 | 0.00 | 0.00 | 90 | 1009.8 |
| 20260508090529 | 44 | 360 | 0.0 | 2.0 | 0.00 | 0.00 | 0.00 | 90 | 1009.7 |
| 20260508090032 | 44 | 360 | 0.0 | 2.0 | 0.00 | 0.00 | 0.00 | 90 | 1009.8 |
| 20260508085527 | 44 | 360 | 0.0 | 1.0 | 0.00 | 0.00 | 0.00 | 90 | 1009.8 |
| 20260508085025 | 44 | 360 | 0.0 | 2.0 | 0.00 | 0.00 | 0.00 | 90 | 1009.9 |
| 20260508084525 | 44 | 360 | 0.0 | 3.0 | 0.00 | 0.00 | 0.00 | 90 | 1009.9 |
| 20260508084024 | 44 | 360 | 1.0 | 3.0 | 0.00 | 0.00 | 0.00 | 90 | 1010.0 |
| 20260508083524 | 44 | 360 | 0.0 | 2.0 | 0.00 | 0.00 | 0.00 | 88 | 1009.9 |
| 20260508083022 | 45 | 360 | 0.0 | 2.0 | 0.00 | 0.00 | 0.00 | 87 | 1010.0 |
| 20260508082522 | 46 | 360 | 0.0 | 1.0 | 0.00 | 0.00 | 0.00 | 88 | 1010.3 |
| 20260508082023 | 46 | 360 | 0.0 | 1.0 | 0.00 | 0.00 | 0.00 | 89 | 1010.5 |
| 20260508081524 | 46 | 360 | 0.0 | 1.0 | 0.00 | 0.00 | 0.00 | 89 | 1010.5 |
| 20260508081019 | 46 | 360 | 0.0 | 1.0 | 0.00 | 0.00 | 0.00 | 90 | 1010.7 |
| 20260508080519 | 46 | 360 | 0.0 | 1.0 | 0.00 | 0.00 | 0.00 | 90 | 1010.9 |
| 20260508080019 | 46 | 360 | 0.0 | 0.0 | 0.00 | 0.00 | 0.00 | 90 | 1010.9 |
| 20260508075519 | 46 | 360 | 0.0 | 0.0 | 0.00 | 0.00 | 0.00 | 90 | 1011.0 |
| 20260508075018 | 46 | 360 | 0.0 | 1.0 | 0.00 | 0.00 | 0.00 | 90 | 1011.0 |
| 20260508074517 | 46 | 360 | 0.0 | 1.0 | 0.00 | 0.00 | 0.00 | 90 | 1011.1 |
| 20260508074017 | 46 | 360 | 0.0 | 1.0 | 0.00 | 0.00 | 0.00 | 89 | 1010.9 |
| 20260508073516 | 46 | 360 | 0.0 | 0.0 | 0.00 | 0.00 | 0.00 | 88 | 1011.0 |
| 20260508073016 | 46 | 360 | 0.0 | 0.0 | 0.00 | 0.00 | 0.00 | 87 | 1011.1 |
| 20260508072513 | 47 | 360 | 0.0 | 0.0 | 0.00 | 0.00 | 0.00 | 86 | 1011.0 |
| 20260508072013 | 48 | 360 | 0.0 | 1.0 | 0.00 | 0.00 | 0.00 | 87 | 1011.2 |
| 20260508071524 | 48 | 360 | 0.0 | 1.0 | 0.00 | 0.00 | 0.00 | 86 | 1011.2 |
| 20260508071012 | 48 | 360 | 0.0 | 1.0 | 0.00 | 0.00 | 0.00 | 86 | 1011.2 |
| 20260508070512 | 48 | 360 | 0.0 | 0.0 | 0.00 | 0.00 | 0.00 | 86 | 1011.1 |
| 20260508070010 | 48 | 360 | 0.0 | 0.0 | 0.00 | 0.00 | 0.00 | 85 | 1011.1 |
| 20260508065517 | 48 | 360 | 0.0 | 1.0 | 0.00 | 0.00 | 0.00 | 84 | 1011.0 |
| 20260508065008 | 48 | 360 | 0.0 | 1.0 | 0.00 | 0.00 | 0.00 | 83 | 1010.9 |
| 20260508064510 | 49 | 360 | 0.0 | 0.0 | 0.00 | 0.00 | 0.00 | 82 | 1010.7 |
| 20260508064005 | 49 | 360 | 0.0 | 1.0 | 0.00 | 0.00 | 0.00 | 81 | 1010.6 |
| 20260508063505 | 50 | 360 | 0.0 | 1.0 | 0.00 | 0.00 | 0.00 | 80 | 1010.5 |
| 20260508063005 | 50 | 360 | 0.0 | 2.0 | 0.00 | 0.00 | 0.00 | 79 | 1010.6 |
| 20260508062504 | 50 | 37 | 0.0 | 3.0 | 0.00 | 0.00 | 0.00 | 79 | 1010.6 |
| 20260508062002 | 51 | 38 | 0.0 | 3.0 | 0.00 | 0.00 | 0.00 | 78 | 1010.7 |
| 20260508061502 | 51 | 34 | 2.0 | 3.0 | 0.00 | 0.00 | 0.00 | 79 | 1010.8 |
| 20260508061102 | 51 | 38 | 1.0 | 2.0 | 0.00 | 0.00 | 0.00 | 78 | 1010.7 |
| 20260508060559 | 52 | 40 | 0.0 | 4.0 | 0.00 | 0.00 | 0.00 | 76 | 1011.0 |
| 20260508060106 | 52 | 40 | 1.0 | 4.0 | 0.00 | 0.00 | 0.00 | 76 | 1011.2 |
| 20260508055557 | 52 | 35 | 1.0 | 3.0 | 0.00 | 0.00 | 0.00 | 76 | 1011.3 |
| 20260508055057 | 52 | 244 | 0.0 | 3.0 | 0.00 | 0.00 | 0.00 | 76 | 1011.3 |
| 20260508054600 | 52 | 230 | 0.0 | 4.0 | 0.00 | 0.00 | 0.00 | 76 | 1011.1 |
| 20260508054057 | 52 | 211 | 1.0 | 4.0 | 0.00 | 0.00 | 0.00 | 77 | 1011.3 |
| 20260508053557 | 52 | 248 | 0.0 | 2.0 | 0.00 | 0.00 | 0.00 | 79 | 1011.2 |
| 20260508053059 | 52 | 240 | 0.0 | 3.0 | 0.00 | 0.00 | 0.00 | 78 | 1011.4 |
| 20260508052556 | 52 | 251 | 1.0 | 4.0 | 0.00 | 0.00 | 0.00 | 76 | 1011.2 |
| 20260508052057 | 53 | 360 | 2.0 | 4.0 | 0.00 | 0.00 | 0.00 | 74 | 1011.2 |
| 20260508051600 | 53 | 360 | 0.0 | 2.0 | 0.00 | 0.00 | 0.00 | 72 | 1010.7 |
| 20260508051056 | 53 | 360 | 0.0 | 3.0 | 0.00 | 0.00 | 0.00 | 72 | 1010.5 |
| 20260508050558 | 53 | 360 | 1.0 | 6.0 | 0.00 | 0.00 | 0.00 | 71 | 1010.3 |
| 20260508050056 | 53 | 360 | 3.0 | 6.0 | 0.00 | 0.00 | 0.00 | 71 | 1010.1 |
| 20260508045555 | 53 | 360 | 3.0 | 8.0 | 0.00 | 0.00 | 0.00 | 70 | 1010.1 |
| 20260508045057 | 53 | 360 | 4.0 | 10.0 | 0.00 | 0.00 | 0.00 | 70 | 1010.0 |
| 20260508044605 | 54 | 360 | 5.0 | 10.0 | 0.00 | 0.00 | 0.00 | 69 | 1010.2 |
| 20260508044057 | 54 | 360 | 5.0 | 10.0 | 0.00 | 0.00 | 0.00 | 70 | 1010.2 |
| 20260508043557 | 54 | 360 | 6.0 | 11.0 | 0.00 | 0.00 | 0.00 | 70 | 1010.2 |
| 20260508043107 | 54 | 57 | 6.0 | 11.0 | 0.00 | 0.00 | 0.00 | 69 | 1010.2 |
| 20260508042554 | 54 | 65 | 5.0 | 9.0 | 0.00 | 0.00 | 0.00 | 69 | 1010.3 |
| 20260508042053 | 54 | 79 | 4.0 | 12.0 | 0.00 | 0.00 | 0.00 | 70 | 1010.2 |
| 20260508041555 | 54 | 360 | 6.0 | 12.0 | 0.00 | 0.00 | 0.00 | 71 | 1010.3 |
| 20260508041053 | 54 | 47 | 4.0 | 9.0 | 0.00 | 0.00 | 0.00 | 70 | 1010.7 |
| 20260508040553 | 55 | 38 | 1.0 | 3.0 | 0.00 | 0.00 | 0.00 | 67 | 1011.2 |
| 20260508040059 | 55 | 175 | 0.0 | 2.0 | 0.00 | 0.00 | 0.00 | 65 | 1011.7 |
| 20260508035553 | 55 | 169 | 0.0 | 2.0 | 0.00 | 0.00 | 0.00 | 65 | 1011.5 |
| 20260508035053 | 55 | 94 | 0.0 | 3.0 | 0.00 | 0.00 | 0.00 | 65 | 1011.1 |
| 20260508034555 | 55 | 89 | 1.0 | 5.0 | 0.00 | 0.00 | 0.00 | 64 | 1010.7 |
| 20260508034053 | 55 | 76 | 2.0 | 5.0 | 0.00 | 0.00 | 0.00 | 63 | 1010.6 |
| 20260508033552 | 56 | 57 | 3.0 | 7.0 | 0.00 | 0.00 | 0.00 | 62 | 1010.5 |
| 20260508033052 | 56 | 50 | 4.0 | 7.0 | 0.00 | 0.00 | 0.00 | 61 | 1010.5 |
| 20260508032552 | 56 | 59 | 3.0 | 9.0 | 0.00 | 0.00 | 0.00 | 60 | 1010.4 |
| 20260508032050 | 56 | 39 | 3.0 | 11.0 | 0.00 | 0.00 | 0.00 | 59 | 1010.3 |
| 20260508031551 | 56 | 51 | 5.0 | 11.0 | 0.00 | 0.00 | 0.00 | 59 | 1010.4 |
| 20260508031052 | 57 | 51 | 5.0 | 9.0 | 0.00 | 0.00 | 0.00 | 58 | 1010.3 |
| 20260508030550 | 57 | 47 | 4.0 | 11.0 | 0.00 | 0.00 | 0.00 | 57 | 1010.5 |
| 20260508030058 | 58 | 49 | 6.0 | 11.0 | 0.00 | 0.00 | 0.00 | 54 | 1010.3 |
| 20260508025549 | 59 | 32 | 5.0 | 11.0 | 0.00 | 0.00 | 0.00 | 51 | 1010.3 |
| 20260508025050 | 59 | 49 | 5.0 | 10.0 | 0.00 | 0.00 | 0.00 | 48 | 1010.4 |
| 20260508024550 | 60 | 59 | 3.0 | 11.0 | 0.00 | 0.00 | 0.00 | 46 | 1010.2 |
| 20260508024049 | 60 | 66 | 6.0 | 11.0 | 0.00 | 0.00 | 0.00 | 46 | 1010.2 |
| 20260508023548 | 59 | 65 | 4.0 | 9.0 | 0.00 | 0.00 | 0.00 | 48 | 1010.0 |
| 20260508023049 | 59 | 42 | 4.0 | 9.0 | 0.00 | 0.00 | 0.00 | 47 | 1010.0 |
| 20260508022549 | 59 | 35 | 2.0 | 4.0 | 0.00 | 0.00 | 0.00 | 48 | 1009.9 |
| 20260508022048 | 59 | 310 | 0.0 | 3.0 | 0.00 | 0.00 | 0.00 | 48 | 1009.9 |
| 20260508021549 | 59 | 301 | 0.0 | 1.0 | 0.00 | 0.00 | 0.00 | 47 | 1009.9 |
| 20260508021048 | 59 | 301 | 0.0 | 1.0 | 0.00 | 0.00 | 0.00 | 48 | 1009.8 |
| 20260508020548 | 59 | 301 | 0.0 | 1.0 | 0.00 | 0.00 | 0.00 | 47 | 1009.6 |
| 20260508020050 | 60 | 302 | 0.0 | 1.0 | 0.00 | 0.00 | 0.00 | 47 | 1009.3 |
| 20260508015550 | 60 | 302 | 0.0 | 1.0 | 0.00 | 0.00 | 0.00 | 46 | 1009.2 |
| 20260508015048 | 60 | 302 | 0.0 | 1.0 | 0.00 | 0.00 | 0.00 | 48 | 1009.2 |
| 20260508014548 | 60 | 302 | 0.0 | 2.0 | 0.00 | 0.00 | 0.00 | 46 | 1009.1 |
| 20260508014048 | 61 | 303 | 1.0 | 4.0 | 0.00 | 0.00 | 0.00 | 44 | 1009.0 |
| 20260508013548 | 61 | 349 | 1.0 | 5.0 | 0.00 | 0.00 | 0.00 | 43 | 1008.7 |
| 20260508013047 | 61 | 56 | 2.0 | 8.0 | 0.00 | 0.00 | 0.00 | 43 | 1008.7 |
| 20260508012550 | 61 | 32 | 3.0 | 8.0 | 0.00 | 0.00 | 0.00 | 44 | 1008.7 |
| 20260508012047 | 61 | 360 | 1.0 | 5.0 | 0.00 | 0.00 | 0.00 | 45 | 1008.6 |
| 20260508011547 | 61 | 360 | 2.0 | 8.0 | 0.00 | 0.00 | 0.00 | 44 | 1008.7 |
| 20260508011046 | 62 | 360 | 2.0 | 8.0 | 0.00 | 0.00 | 0.00 | 43 | 1008.6 |
| 20260508010546 | 62 | 360 | 1.0 | 8.0 | 0.00 | 0.00 | 0.00 | 43 | 1008.7 |
| 20260508010047 | 62 | 360 | 3.0 | 8.0 | 0.00 | 0.00 | 0.00 | 43 | 1008.7 |
| 20260508005546 | 63 | 360 | 2.0 | 5.0 | 0.00 | 0.00 | 0.00 | 42 | 1008.9 |
| 20260508005045 | 63 | 360 | 1.0 | 6.0 | 0.00 | 0.00 | 0.00 | 41 | 1009.1 |
| 20260508004551 | 64 | 360 | 2.0 | 9.0 | 0.00 | 0.00 | 0.00 | 39 | 1009.2 |
| 20260508004044 | 64 | 360 | 2.0 | 9.0 | 0.00 | 0.00 | 0.00 | 37 | 1009.0 |
| 20260508003544 | 65 | 360 | 3.0 | 8.0 | 0.00 | 0.00 | 0.00 | 35 | 1008.7 |
| 20260508003047 | 65 | 360 | 3.0 | 8.0 | 0.00 | 0.00 | 0.00 | 35 | 1008.6 |
| 20260508002544 | 65 | 360 | 3.0 | 8.0 | 0.00 | 0.00 | 0.00 | 34 | 1008.6 |
| 20260508002043 | 66 | 360 | 2.0 | 6.0 | 0.00 | 0.00 | 0.00 | 34 | 1008.6 |
| 20260508001543 | 66 | 360 | 2.0 | 6.0 | 0.00 | 0.00 | 0.00 | 34 | 1008.7 |
| 20260508001043 | 66 | 360 | 3.0 | 8.0 | 0.00 | 0.00 | 0.00 | 33 | 1008.6 |
| 20260508000543 | 67 | 360 | 3.0 | 6.0 | 0.00 | 0.00 | 0.00 | 33 | 1008.7 |
| 20260508000042 | 67 | 360 | 3.0 | 8.0 | 0.00 | 0.00 | 0.00 | 31 | 1008.7 |
| 20260507235542 | 68 | 360 | 3.0 | 8.0 | 0.00 | 0.00 | 0.00 | 30 | 1008.8 |
| 20260507235042 | 68 | 360 | 3.0 | 6.0 | 0.00 | 0.00 | 0.00 | 31 | 1008.7 |
| 20260507234547 | 68 | 360 | 1.0 | 4.0 | 0.00 | 0.00 | 0.00 | 29 | 1008.6 |
| 20260507234042 | 68 | 360 | 1.0 | 4.0 | 0.00 | 0.00 | 0.00 | 28 | 1008.7 |
| 20260507233542 | 68 | 360 | 0.0 | 2.0 | 0.00 | 0.00 | 0.00 | 26 | 1008.7 |
| 20260507233043 | 69 | 360 | 0.0 | 3.0 | 0.00 | 0.00 | 0.00 | 27 | 1008.7 |
| 20260507232542 | 69 | 257 | 0.0 | 4.0 | 0.00 | 0.00 | 0.00 | 25 | 1008.7 |
| 20260507232040 | 69 | 257 | 1.0 | 5.0 | 0.00 | 0.00 | 0.00 | 26 | 1008.8 |
| 20260507231547 | 69 | 360 | 2.0 | 6.0 | 0.00 | 0.00 | 0.00 | 26 | 1008.9 |
| 20260507231042 | 69 | 360 | 2.0 | 6.0 | 0.00 | 0.00 | 0.00 | 26 | 1009.0 |
| 20260507230539 | 69 | 360 | 2.0 | 6.0 | 0.00 | 0.00 | 0.00 | 26 | 1008.9 |
| 20260507230038 | 70 | 360 | 1.0 | 6.0 | 0.00 | 0.00 | 0.00 | 26 | 1009.0 |
| 20260507225538 | 70 | 360 | 1.0 | 7.0 | 0.00 | 0.00 | 0.00 | 27 | 1009.0 |
| 20260507225037 | 72 | 212 | 2.0 | 10.0 | 0.00 | 0.00 | 0.00 | 24 | 1009.1 |
| 20260507224538 | 72 | 170 | 2.0 | 10.0 | 0.00 | 0.00 | 0.00 | 25 | 1009.1 |
| 20260507224036 | 72 | 219 | 2.0 | 7.0 | 0.00 | 0.00 | 0.00 | 25 | 1009.2 |
| 20260507223535 | 72 | 38 | 2.0 | 7.0 | 0.00 | 0.00 | 0.00 | 27 | 1009.2 |
| 20260507223036 | 72 | 223 | 3.0 | 7.0 | 0.00 | 0.00 | 0.00 | 26 | 1009.3 |
| 20260507222534 | 72 | 188 | 2.0 | 7.0 | 0.00 | 0.00 | 0.00 | 24 | 1009.2 |
| 20260507222034 | 72 | 215 | 2.0 | 7.0 | 0.00 | 0.00 | 0.00 | 26 | 1009.4 |
| 20260507221533 | 72 | 177 | 1.0 | 9.0 | 0.00 | 0.00 | 0.00 | 24 | 1009.5 |
| 20260507221032 | 72 | 216 | 3.0 | 8.0 | 0.00 | 0.00 | 0.00 | 23 | 1009.6 |
| 20260507220530 | 72 | 219 | 2.0 | 7.0 | 0.00 | 0.00 | 0.00 | 24 | 1009.8 |
| 20260507220030 | 72 | 193 | 4.0 | 13.0 | 0.00 | 0.00 | 0.00 | 25 | 1009.8 |
| 20260507215529 | 72 | 253 | 3.0 | 13.0 | 0.00 | 0.00 | 0.00 | 25 | 1009.9 |
| 20260507215027 | 72 | 216 | 4.0 | 9.0 | 0.00 | 0.00 | 0.00 | 27 | 1010.1 |
| 20260507214528 | 72 | 230 | 4.0 | 18.0 | 0.00 | 0.00 | 0.00 | 25 | 1010.1 |
| 20260507214026 | 72 | 250 | 6.0 | 18.0 | 0.00 | 0.00 | 0.00 | 24 | 1010.3 |
| 20260507213528 | 72 | 205 | 6.0 | 14.0 | 0.00 | 0.00 | 0.00 | 25 | 1010.3 |
| 20260507213028 | 72 | 238 | 4.0 | 11.0 | 0.00 | 0.00 | 0.00 | 27 | 1010.4 |
| 20260507212525 | 72 | 213 | 3.0 | 12.0 | 0.00 | 0.00 | 0.00 | 28 | 1010.6 |
| 20260507212023 | 72 | 207 | 5.0 | 13.0 | 0.00 | 0.00 | 0.00 | 25 | 1010.9 |
| 20260507211522 | 72 | 300 | 4.0 | 12.0 | 0.00 | 0.00 | 0.00 | 27 | 1010.9 |
| 20260507211020 | 71 | 40 | 5.0 | 12.0 | 0.00 | 0.00 | 0.00 | 27 | 1011.1 |
| 20260507210520 | 72 | 158 | 4.0 | 11.0 | 0.00 | 0.00 | 0.00 | 27 | 1011.2 |
| 20260507210020 | 72 | 158 | 5.0 | 10.0 | 0.00 | 0.00 | 0.00 | 27 | 1011.3 |
| 20260507205519 | 72 | 161 | 4.0 | 11.0 | 0.00 | 0.00 | 0.00 | 29 | 1011.5 |
| 20260507205022 | 72 | 179 | 5.0 | 10.0 | 0.00 | 0.00 | 0.00 | 26 | 1011.5 |
| 20260507204517 | 73 | 200 | 3.0 | 10.0 | 0.00 | 0.00 | 0.00 | 29 | 1011.7 |
| 20260507204016 | 72 | 177 | 3.0 | 10.0 | 0.00 | 0.00 | 0.00 | 29 | 1011.8 |
| 20260507203515 | 72 | 185 | 3.0 | 10.0 | 0.00 | 0.00 | 0.00 | 30 | 1011.9 |
| 20260507203014 | 72 | 208 | 4.0 | 16.0 | 0.00 | 0.00 | 0.00 | 27 | 1011.9 |
| 20260507202513 | 71 | 171 | 6.0 | 14.0 | 0.00 | 0.00 | 0.00 | 28 | 1011.9 |
| 20260507202013 | 71 | 178 | 5.0 | 10.0 | 0.00 | 0.00 | 0.00 | 29 | 1011.9 |
| 20260507201515 | 71 | 198 | 4.0 | 12.0 | 0.00 | 0.00 | 0.00 | 28 | 1012.1 |
| 20260507201011 | 71 | 203 | 2.0 | 12.0 | 0.00 | 0.00 | 0.00 | 31 | 1012.2 |
| 20260507200510 | 70 | 163 | 4.0 | 11.0 | 0.00 | 0.00 | 0.00 | 30 | 1012.3 |
| 20260507200009 | 70 | 45 | 3.0 | 14.0 | 0.00 | 0.00 | 0.00 | 30 | 1012.4 |
| 20260507195507 | 70 | 51 | 5.0 | 14.0 | 0.00 | 0.05 | 0.00 | 30 | 1012.5 |
| 20260507195007 | 70 | 81 | 3.0 | 9.0 | 0.00 | 0.05 | 0.00 | 29 | 1012.7 |
| 20260507194511 | 70 | 360 | 3.0 | 13.0 | 0.00 | 0.05 | 0.00 | 29 | 1012.8 |
| 20260507194005 | 69 | 360 | 5.0 | 13.0 | 0.00 | 0.05 | 0.00 | 31 | 1012.9 |
| 20260507193506 | 69 | 54 | 4.0 | 10.0 | 0.00 | 0.05 | 0.00 | 29 | 1013.0 |
| 20260507193003 | 69 | 53 | 4.0 | 13.0 | 0.00 | 0.05 | 0.00 | 31 | 1013.1 |
| 20260507192503 | 69 | 46 | 3.0 | 13.0 | 0.00 | 0.05 | 0.00 | 30 | 1013.1 |
| 20260507192004 | 69 | 42 | 4.0 | 13.0 | 0.00 | 0.05 | 0.00 | 32 | 1013.2 |
| 20260507191502 | 69 | 43 | 5.0 | 13.0 | 0.00 | 0.05 | 0.00 | 31 | 1013.3 |
| 20260507191103 | 69 | 53 | 5.0 | 11.0 | 0.00 | 0.05 | 0.00 | 31 | 1013.3 |
| 20260507190559 | 69 | 36 | 4.0 | 10.0 | 0.00 | 0.05 | 0.00 | 32 | 1013.4 |
| 20260507190059 | 69 | 34 | 4.0 | 13.0 | 0.00 | 0.05 | 0.00 | 33 | 1013.4 |
| 20260507185557 | 68 | 27 | 5.0 | 13.0 | 0.00 | 0.17 | 0.00 | 33 | 1013.6 |
| 20260507185056 | 68 | 33 | 6.0 | 13.0 | 0.00 | 0.17 | 0.00 | 33 | 1013.6 |
| 20260507184556 | 68 | 44 | 7.0 | 13.0 | 0.00 | 0.17 | 0.00 | 32 | 1013.7 |
| 20260507184055 | 68 | 44 | 4.0 | 11.0 | 0.00 | 0.17 | 0.00 | 34 | 1013.8 |
| 20260507183553 | 67 | 42 | 3.0 | 11.0 | 0.00 | 0.17 | 0.00 | 35 | 1014.0 |
| 20260507183055 | 66 | 41 | 4.0 | 9.0 | 0.00 | 0.17 | 0.00 | 34 | 1014.2 |
| 20260507182550 | 66 | 208 | 3.0 | 11.0 | 0.00 | 0.17 | 0.00 | 36 | 1014.2 |
| 20260507182049 | 65 | 243 | 4.0 | 11.0 | 0.00 | 0.17 | 0.00 | 36 | 1014.4 |
| 20260507181549 | 64 | 49 | 4.0 | 10.0 | 0.00 | 0.17 | 0.00 | 37 | 1014.5 |
| 20260507181047 | 64 | 360 | 4.0 | 10.0 | 0.00 | 0.17 | 0.00 | 36 | 1014.6 |
| 20260507180545 | 64 | 51 | 2.0 | 10.0 | 0.00 | 0.17 | 0.00 | 38 | 1014.8 |
| 20260507180045 | 63 | 62 | 3.0 | 12.0 | 0.00 | 0.17 | 0.00 | 38 | 1015.0 |
| 20260507175543 | 62 | 360 | 3.0 | 9.0 | 0.00 | 0.34 | 0.00 | 38 | 1015.0 |
| 20260507175042 | 62 | 80 | 2.0 | 7.0 | 0.00 | 0.34 | 0.00 | 39 | 1015.0 |
| 20260507174549 | 61 | 360 | 2.0 | 5.0 | 0.00 | 0.34 | 0.00 | 41 | 1015.1 |
| 20260507174039 | 60 | 91 | 2.0 | 6.0 | 0.00 | 0.34 | 0.00 | 41 | 1015.2 |
| 20260507173538 | 60 | 75 | 2.0 | 6.0 | 0.00 | 0.34 | 0.00 | 43 | 1015.3 |
| 20260507173045 | 60 | 113 | 1.0 | 7.0 | 0.00 | 0.34 | 0.00 | 43 | 1015.4 |
| 20260507172538 | 60 | 107 | 3.0 | 7.0 | 0.00 | 0.34 | 0.00 | 41 | 1015.4 |
| 20260507172036 | 60 | 109 | 1.0 | 3.0 | 0.00 | 0.34 | 0.00 | 42 | 1015.5 |
| 20260507171546 | 60 | 79 | 0.0 | 4.0 | 0.00 | 0.34 | 0.00 | 42 | 1015.6 |
| 20260507171034 | 59 | 76 | 2.0 | 4.0 | 0.00 | 0.34 | 0.00 | 42 | 1015.7 |
| 20260507170535 | 60 | 103 | 1.0 | 4.0 | 0.00 | 0.34 | 0.00 | 46 | 1015.8 |
| 20260507170033 | 59 | 92 | 1.0 | 3.0 | 0.00 | 0.34 | 0.00 | 44 | 1015.9 |
| 20260507165534 | 59 | 75 | 0.0 | 3.0 | 0.00 | 0.40 | 0.00 | 43 | 1015.8 |
| 20260507165033 | 59 | 84 | 1.0 | 3.0 | 0.00 | 0.40 | 0.00 | 43 | 1015.9 |
| 20260507164536 | 59 | 82 | 1.0 | 3.0 | 0.00 | 0.40 | 0.00 | 42 | 1016.0 |
| 20260507164031 | 59 | 88 | 0.0 | 3.0 | 0.00 | 0.40 | 0.00 | 43 | 1016.0 |
| 20260507163530 | 59 | 80 | 1.0 | 4.0 | 0.00 | 0.40 | 0.00 | 43 | 1015.9 |
| 20260507163030 | 59 | 101 | 1.0 | 4.0 | 0.00 | 0.40 | 0.00 | 44 | 1015.9 |
| 20260507162530 | 59 | 88 | 1.0 | 2.0 | 0.00 | 0.40 | 0.00 | 46 | 1016.0 |
| 20260507162029 | 58 | 84 | 0.0 | 2.0 | 0.00 | 0.40 | 0.00 | 45 | 1016.1 |
| 20260507161539 | 58 | 78 | 0.0 | 3.0 | 0.00 | 0.40 | 0.00 | 47 | 1016.1 |
| 20260507161028 | 58 | 70 | 1.0 | 3.0 | 0.00 | 0.40 | 0.00 | 44 | 1016.1 |
| 20260507160526 | 58 | 82 | 0.0 | 3.0 | 0.00 | 0.40 | 0.00 | 45 | 1016.3 |
| 20260507160034 | 58 | 83 | 0.0 | 4.0 | 0.00 | 0.40 | 0.00 | 45 | 1016.3 |
| 20260507155524 | 59 | 96 | 0.0 | 3.0 | 0.00 | 0.45 | 0.00 | 49 | 1016.4 |
| 20260507155025 | 59 | 73 | 0.0 | 4.0 | 0.00 | 0.45 | 0.00 | 49 | 1016.5 |
| 20260507154530 | 58 | 71 | 1.0 | 4.0 | 0.00 | 0.45 | 0.00 | 49 | 1016.5 |
| 20260507154022 | 58 | 72 | 1.0 | 4.0 | 0.00 | 0.45 | 0.00 | 50 | 1016.5 |
| 20260507153521 | 57 | 42 | 1.0 | 4.0 | 0.00 | 0.45 | 0.00 | 55 | 1016.6 |
| 20260507153019 | 56 | 39 | 1.0 | 6.0 | 0.00 | 0.45 | 0.00 | 54 | 1016.5 |
| 20260507152517 | 55 | 97 | 2.0 | 6.0 | 0.00 | 0.45 | 0.00 | 56 | 1016.5 |
| 20260507152017 | 55 | 114 | 2.0 | 4.0 | 0.00 | 0.45 | 0.00 | 55 | 1016.7 |
| 20260507151530 | 54 | 123 | 1.0 | 4.0 | 0.00 | 0.45 | 0.00 | 54 | 1016.7 |
| 20260507151014 | 54 | 113 | 1.0 | 4.0 | 0.00 | 0.45 | 0.00 | 54 | 1016.8 |
| 20260507150515 | 54 | 113 | 2.0 | 4.0 | 0.00 | 0.45 | 0.00 | 51 | 1016.9 |
| 20260507150014 | 54 | 199 | 1.0 | 3.0 | 0.00 | 0.45 | 0.00 | 51 | 1017.0 |
| 20260507145512 | 54 | 101 | 0.0 | 4.0 | 0.00 | 0.47 | 0.00 | 53 | 1017.1 |
| 20260507145012 | 54 | 114 | 1.0 | 6.0 | 0.00 | 0.47 | 0.00 | 54 | 1017.0 |
| 20260507144510 | 54 | 112 | 3.0 | 6.0 | 0.00 | 0.47 | 0.00 | 52 | 1017.0 |
| 20260507144010 | 53 | 74 | 2.0 | 4.0 | 0.00 | 0.47 | 0.00 | 53 | 1017.1 |
| 20260507143510 | 53 | 92 | 1.0 | 3.0 | 0.00 | 0.47 | 0.00 | 52 | 1017.1 |
| 20260507143007 | 53 | 121 | 1.0 | 3.0 | 0.00 | 0.47 | 0.00 | 55 | 1017.0 |
| 20260507142505 | 53 | 133 | 0.0 | 2.0 | 0.00 | 0.47 | 0.00 | 56 | 1017.0 |
| 20260507142005 | 52 | 133 | 0.0 | 2.0 | 0.00 | 0.47 | 0.00 | 58 | 1016.9 |
| 20260507141504 | 52 | 123 | 0.0 | 4.0 | 0.00 | 0.47 | 0.00 | 57 | 1017.1 |
| 20260507141007 | 52 | 116 | 1.0 | 6.0 | 0.00 | 0.47 | 0.00 | 56 | 1017.3 |
| 20260507140503 | 52 | 105 | 2.0 | 6.0 | 0.00 | 0.47 | 0.00 | 55 | 1017.2 |
| 20260507140001 | 52 | 86 | 2.0 | 4.0 | 0.00 | 0.48 | 0.00 | 57 | 1017.2 |
| 20260507135502 | 51 | 129 | 1.0 | 5.0 | 0.00 | 0.48 | 0.00 | 55 | 1017.2 |
| 20260507135004 | 52 | 88 | 0.0 | 5.0 | 0.00 | 0.48 | 0.00 | 53 | 1017.1 |
| 20260507134502 | 52 | 59 | 1.0 | 5.0 | 0.00 | 0.48 | 0.00 | 53 | 1017.1 |
| 20260507134059 | 51 | 51 | 0.0 | 5.0 | 0.00 | 0.48 | 0.00 | 54 | 1017.0 |
| 20260507133559 | 50 | 55 | 2.0 | 5.0 | 0.00 | 0.48 | 0.00 | 53 | 1017.1 |
| 20260507133100 | 49 | 51 | 0.0 | 5.0 | 0.00 | 0.48 | 0.00 | 58 | 1017.2 |
| 20260507132555 | 48 | 15 | 0.0 | 2.0 | 0.00 | 0.48 | 0.00 | 61 | 1017.3 |
| 20260507132054 | 47 | 26 | 0.0 | 3.0 | 0.00 | 0.48 | 0.00 | 61 | 1017.3 |
| 20260507131609 | 46 | 125 | 0.0 | 3.0 | 0.00 | 0.48 | 0.00 | 61 | 1017.3 |
| 20260507131053 | 45 | 146 | 0.0 | 2.0 | 0.00 | 0.48 | 0.00 | 62 | 1017.3 |
| 20260507130550 | 44 | 34 | 1.0 | 2.0 | 0.00 | 0.48 | 0.00 | 65 | 1017.1 |
| 20260507130048 | 43 | 360 | 0.0 | 2.0 | 0.00 | 0.48 | 0.00 | 66 | 1017.2 |
| 20260507125547 | 42 | 360 | 1.0 | 3.0 | 0.00 | 0.48 | 0.00 | 68 | 1017.2 |
| 20260507125045 | 42 | 360 | 0.0 | 3.0 | 0.00 | 0.48 | 0.00 | 68 | 1017.2 |
| 20260507124545 | 41 | 360 | 1.0 | 3.0 | 0.00 | 0.48 | 0.00 | 67 | 1017.1 |
| 20260507124047 | 41 | 360 | 0.0 | 3.0 | 0.00 | 0.48 | 0.00 | 69 | 1017.1 |
| 20260507123543 | 40 | 360 | 1.0 | 3.0 | 0.00 | 0.48 | 0.00 | 70 | 1017.2 |
| 20260507123043 | 40 | 360 | 0.0 | 2.0 | 0.00 | 0.48 | 0.00 | 71 | 1017.2 |